Flag for Germany Weather past 2 weeks in Neumünster, Schleswig-Holstein, Germany

Now
60 °F

Sunny.


Feels Like: 60 °F
Forecast: 44 / 63 °F
Wind: 6 mph from East

Location: Itzehoe


UV Index: 0 (Low)

Visibility: 11 mi


Pressure: 29.88 "Hg

Humidity: 69%

Dew point: 49 °F

Location of NeumünsterLocation

Historic Weather in Neumünster

°F

Neumünster temperature yesterday

Maximum temperature yesterday: 59 °F (at 4:00 PM)
Minimum temperature yesterday: 37 °F (at 5:00 AM)
Average temperature yesterday: 49 °F

Past Weeks' High & Low Weather Summary

 TemperatureHumidityPressure
High67 °F (Apr 20, 3:00 PM)100% (Apr 6, 2:00 AM)30.47 "Hg (Apr 6, 2:00 AM)
Low28 °F (Apr 16, 7:00 AM)35% (Apr 16, 5:00 PM)29.63 "Hg (Apr 8, 9:00 AM)
Average49 °F80%30.03 "Hg
* Reported Apr 5 9:00 PM — Apr 20 8:00 PM, Neumünster, Weather by CustomWeather, © 2014

Note: Actual official high and low records may vary slightly from our data, if they occured in-between our weather recording intervals... More about our weather records

Advertising

Historic Weather Conditions — Data for Previous 24 hours

 ConditionsComfort  
Time TempWeatherWind HumidityBarometerVisibility
8:00 PM
Apr 20
60 °FSunny.6 mph69%29.88 "Hg11 mi
7:00 PM63 °FSunny.8 mph62%29.88 "Hg13 mi
6:00 PM65 °FSunny.8 mph59%29.87 "Hg7 mi
4:00 PM66 °FPassing clouds.9 mph55%29.90 "Hg6 mi
3:00 PM67 °FPassing clouds.8 mph57%29.91 "Hg6 mi
1:00 PM65 °FPassing clouds.9 mph58%29.94 "Hg7 mi
12:00 PM63 °FSunny.8 mph65%29.96 "Hg7 mi
11:00 AM60 °FSunny.7 mph72%29.97 "Hg7 mi
10:00 AM56 °FSunny.7 mph76%29.98 "Hg6 mi
9:00 AM52 °FSunny.6 mph81%29.99 "Hg5 mi
7:00 AM45 °FSunny.3 mph90%30.00 "Hg5 mi
6:00 AM46 °FClear.6 mph87%30.00 "Hg6 mi
4:00 AM47 °FClear.5 mph84%30.03 "Hg8 mi
3:00 AM47 °FClear.7 mph83%30.04 "Hg9 mi
1:00 AM49 °FClear.6 mph73%30.08 "Hg12 mi
12:00 AM50 °FClear.6 mph72%30.09 "Hg12 mi
10:00 PM
Apr 19
52 °FClear.7 mph69%30.11 "Hg11 mi
9:00 PM52 °FClear.7 mph69%30.12 "Hg8 mi
Weather by CustomWeather, © 2014

See weather overview